RH
39 26 37 42 44 43 46 44 42 37 25 18 17 27 45 48 48 68 78 66 58 48 60 72 81 82 76 66 59 57 52 45 42 42 34 45 43 50 50 45 48 42 51
22 36 42 27 17 12 12 14 18 20 19 18 20 33 44 50 57 75 87 80 64 61 55 65 74 72 65 56 53 46 43 38 32 32 34 34 34 45 35 43 42 23 40
16 18 20 15 15 16 14 11 12 15 16 19 28 38 44 52 65 77 84 76 75 66 64 55 63 72 70 64 57 47 41 24 27 25 28 26 24 22 33 52 19 12 32
17 22 22 17 16 18 18 17 16 16 21 26 38 49 58 60 72 88 89 83 85 74 74 62 54 67 58 50 43 31 31 18 17 25 24 14 10 11 12 12 18 23 12
18 24 24 18 20 19 19 17 14 18 22 32 53 59 61 63 72 91 94 89 95 92 86 76 61 64 50 41 39 31 15 16 19 31 82 13 11 13 26 20 36 24 40
18 21 23 20 22 23 22 20 17 15 18 24 40 57 65 64 65 68 75 58 99 100 98 97 79 69 58 36 35 28 18 18 20 95 82 19 15 15 39 31 20 19 18
19 20 22 22 25 23 24 23 23 16 13 16 19 32 68 62 53 75 76 71 48 66 97 99 82 63 52 44 25 22 22 22 43 100 80 16 45 35 44 19 19 17 12
19 21 23 26 28 29 28 26 26 25 22 18 19 22 29 42 49 58 76 88 67 84 74 86 66 46 42 45 26 22 22 23 59 100 47 20 20 20 20 18 16 13 10
18 21 24 27 28 28 31 35 31 29 29 28 28 33 27 38 54 55 70 86 77 88 74 84 80 75 70 42 23 23 22 24 62 99 61 26 21 21 21 19 16 11 10
20 20 23 25 28 27 30 34 38 35 32 32 34 32 29 29 29 50 44 44 81 80 74 79 82 76 78 51 21 21 25 21 67 99 84 27 28 28 22 15 11 9 8
19 20 23 23 26 29 28 33 37 41 38 31 32 37 38 33 34 35 37 36 73 82 90 86 87 58 64 38 22 20 22 22 95 99 68 30 29 29 23 14 11 9 9
23 20 21 22 25 29 28 34 35 40 43 36 31 35 42 47 46 44 50 46 69 63 86 87 91 88 65 28 23 20 21 44 80 99 47 29 35 35 36 15 10 10 11
25 22 20 21 21 26 25 32 36 36 43 44 37 35 41 50 59 56 60 57 55 57 76 82 92 96 78 33 27 22 22 29 77 78 35 36 41 35 16 11 12 11 10
47 26 23 21 21 22 24 26 33 33 37 45 48 46 44 56 58 60 65 68 66 61 62 83 85 97 97 49 27 23 24 35 46 48 46 49 37 19 13 12 12 12 11
24 24 23 23 22 23 23 24 25 33 32 43 49 50 54 56 59 66 77 80 78 76 71 87 99 99 95 50 27 22 29 52 38 40 40 32 22 14 13 15 14 12 12
23 24 24 24 24 24 24 26 26 27 28 32 41 51 52 59 64 62 77 91 95 91 85 100 98 100 99 81 45 26 34 39 43 42 34 25 20 14 14 15 14 14 15
43 46 25 25 25 26 25 26 27 27 28 26 31 44 51 53 64 60 56 77 79 94 99 97 99 94 99 97 60 28 54 46 44 42 36 30 20 17 16 16 16 18 19
41 44 32 42 26 25 26 25 27 28 30 27 28 34 48 48 57 50 43 66 74 92 99 99 98 100 99 65 33 33 53 50 44 44 38 35 21 17 17 17 17 18 20
36 31 24 27 29 27 27 28 28 28 28 29 27 30 40 44 56 47 35 60 77 77 94 98 98 100 99 61 36 43 53 45 43 42 36 33 24 19 18 18 18 19 22
21 16 17 16 17 20 18 20 24 27 27 27 26 30 32 43 57 52 33 56 71 76 91 97 98 100 93 46 61 55 60 45 45 43 38 32 26 22 22 21 21 22 22
7 6 6 5 5 6 8 9 15 25 26 24 26 29 33 44 56 45 30 53 69 73 82 97 99 100 91 59 46 65 64 56 45 44 40 31 28 25 25 25 24 23 23
9 10 8 6 5 6 9 12 20 26 26 26 27 32 40 52 48 26 31 55 67 80 80 86 100 100 100 66 53 53 70 70 54 46 43 34 29 28 29 29 28 27 27
7 6 6 7 7 5 9 15 24 28 26 27 29 35 46 61 44 23 39 65 70 81 85 90 100 100 99 93 85 51 51 62 46 45 42 36 30 32 34 33 33 32 40
8 13 10 12 11 9 24 25 29 27 26 28 31 40 56 59 39 23 34 65 72 74 88 98 100 100 100 99 88 72 58 42 43 40 41 38 35 37 38 38 39 38 51
10 19 17 21 21 26 34 32 30 26 26 29 37 46 56 52 37 23 33 67 78 78 99 97 99 100 100 98 85 75 57 48 49 47 44 38 36 42 43 45 47 47 54
10 9 17 39 32 37 35 33 30 28 30 34 39 50 54 53 33 22 31 70 80 78 95 100 100 98 100 98 86 65 46 44 54 68 50 46 40 44 49 52 59 69 72
Wind_Speed
3 3 8 12 15 17 20 20 19 16 15 12 9 6 7 5 5 4 4 3 3 1 4 5 5 5 6 6 6 6 5 5 5 4 4 6 8 7 5 5 6 6 8
11 3 9 13 11 6 7 11 15 17 14 10 8 5 7 7 6 6 5 5 5 4 6 6 7 7 5 5 5 4 5 5 5 6 5 7 7 8 7 6 6 7 8
12 7 7 9 8 7 6 5 7 11 10 8 6 6 7 6 6 5 6 8 7 7 9 8 8 8 7 7 6 5 7 5 4 6 8 9 8 8 9 9 8 9 9
10 8 9 11 9 7 7 5 4 5 7 7 7 6 7 6 7 8 8 10 11 11 11 9 9 9 8 8 7 6 4 4 5 6 10 10 9 9 9 8 7 8 8
9 7 7 9 11 10 8 7 4 3 4 7 8 8 8 9 9 9 10 15 14 12 13 12 10 10 9 8 8 6 5 5 4 2 13 11 9 8 8 8 7 8 8
7 5 4 5 9 9 9 8 6 1 3 4 6 8 9 10 12 13 11 23 7 13 14 14 9 10 9 10 8 6 6 6 6 9 18 8 7 7 7 7 7 6 3
6 3 2 3 6 7 6 8 6 3 1 3 5 7 9 10 10 14 18 28 14 18 3 10 10 11 11 11 9 8 9 10 13 12 17 10 10 10 9 7 5 4 4
10 6 4 4 5 5 6 6 5 3 0 3 5 6 9 9 11 12 17 21 19 15 16 21 9 8 10 10 11 11 12 11 12 12 14 10 10 9 8 8 6 6 5
12 10 8 7 8 8 8 7 6 4 4 4 5 6 8 10 13 14 17 19 16 15 13 8 8 12 12 13 12 13 14 14 15 12 15 11 10 10 9 8 7 7 6
16 13 13 11 10 10 10 10 9 8 7 7 8 8 8 10 14 17 16 17 15 16 10 9 12 16 18 17 14 15 15 15 13 15 12 12 11 9 8 8 7 6 5
22 18 16 15 15 13 14 11 12 12 10 9 11 11 11 14 16 18 19 16 15 16 16 19 17 11 15 18 16 16 17 17 14 12 19 11 10 9 7 7 7 6 5
26 23 21 19 17 17 17 14 13 14 15 12 12 13 15 16 18 20 21 18 18 19 19 19 14 14 14 19 19 18 19 18 15 16 13 12 10 9 10 9 7 7 7
28 27 26 22 20 20 20 18 18 17 18 16 14 15 17 19 19 20 21 23 21 21 24 24 22 16 17 19 21 19 21 20 15 18 13 12 12 12 10 10 11 10 7
24 31 29 27 25 25 25 23 21 22 21 21 19 17 18 20 21 22 23 25 24 24 25 26 28 25 24 22 23 22 23 17 19 20 13 13 14 12 13 13 10 7 7
33 33 32 30 30 28 28 27 25 26 23 25 25 22 20 21 23 24 24 27 26 27 26 30 25 17 18 22 21 22 22 22 21 20 14 14 15 14 14 12 10 10 8
35 34 35 35 34 32 31 30 28 28 28 26 28 26 24 24 24 25 24 27 29 28 26 32 26 22 17 31 19 23 25 24 20 19 16 16 17 16 15 13 13 12 10
23 26 35 38 37 36 33 33 28 29 30 31 29 27 27 25 26 26 24 24 28 27 33 27 23 26 20 28 28 27 26 24 21 18 16 17 18 18 15 15 14 11 10
24 26 34 30 41 40 39 38 35 32 28 33 31 28 27 27 27 27 26 25 22 28 35 22 29 23 21 28 28 29 29 25 23 21 18 19 20 18 15 13 13 12 11
24 32 38 39 40 40 39 43 40 35 31 31 34 29 27 27 28 29 28 27 24 27 25 24 30 36 30 33 30 32 31 29 24 23 21 22 22 19 15 15 12 13 14
31 32 32 32 33 35 35 36 40 38 32 30 33 31 27 27 30 31 30 28 29 30 31 32 31 30 35 31 32 34 32 29 26 24 24 25 25 21 18 15 16 15 15
29 30 30 30 31 33 35 35 36 35 28 29 30 31 26 27 29 31 31 29 29 34 33 31 28 38 40 34 37 36 34 30 28 27 25 25 24 21 18 16 15 15 15
26 28 28 29 30 30 32 32 36 31 27 28 29 27 27 26 28 30 30 30 30 29 33 31 42 43 42 39 43 42 39 31 30 28 25 26 25 22 19 16 16 15 12
26 25 26 27 28 26 30 32 32 29 29 31 29 28 25 24 28 31 30 31 29 32 35 37 38 43 41 47 44 43 41 39 33 30 27 25 24 22 19 18 17 16 13
23 23 24 23 24 27 27 29 28 29 31 31 28 24 25 24 26 29 31 31 30 31 37 40 41 36 46 47 47 41 38 37 37 32 30 27 25 22 19 18 19 20 19
21 22 22 22 24 27 27 30 28 29 30 29 29 28 25 24 25 27 30 29 27 32 39 35 33 39 55 44 51 46 43 38 35 33 30 28 27 23 21 20 21 20 21
16 20 21 20 23 25 27 30 30 30 30 31 30 26 25 24 24 27 29 24 26 29 38 36 41 45 57 45 50 48 45 43 38 31 30 28 26 24 21 21 22 21 22
Wind_Direction
348 346 272 266 272 273 270 269 270 272 276 272 262 216 189 190 199 213 245 283 299 230 202 197 197 203 209 211 203 198 205 231 252 258 205 189 185 181 166 154 172 151 149
331 308 264 285 299 313 297 275 268 266 262 258 246 219 188 193 194 207 238 264 276 233 206 204 196 205 223 225 218 231 245 256 266 247 219 214 201 191 188 191 191 186 178
334 345 343 1 358 357 355 341 277 257 247 236 221 212 201 198 204 229 242 251 242 236 218 214 208 200 202 226 245 236 245 253 255 216 222 211 198 196 178 182 196 194 196
335 352 359 12 20 20 19 14 335 257 217 207 198 206 206 212 216 226 249 252 237 234 226 211 212 206 201 211 232 253 263 250 253 239 225 207 195 190 192 196 192 193 200
334 352 357 27 44 47 39 28 7 300 225 200 201 209 224 229 237 232 239 241 225 220 213 205 203 211 224 235 228 231 238 240 204 127 272 197 189 191 185 191 184 176 174
321 327 355 21 39 50 57 47 39 4 263 217 200 218 222 240 251 250 236 278 222 264 188 190 197 212 233 237 236 226 208 193 181 140 230 204 186 185 178 186 182 193 203
282 278 300 2 18 23 41 49 52 70 147 244 235 236 230 241 274 273 248 298 300 323 89 183 214 231 241 244 228 221 198 181 154 217 248 190 176 182 182 197 204 203 195
259 242 244 290 318 330 348 14 20 15 51 202 239 253 257 251 262 280 274 294 303 331 333 211 196 239 252 243 233 203 205 189 150 209 236 185 203 193 196 193 194 187 186
249 249 250 264 282 293 294 311 344 324 290 271 230 242 269 263 259 269 275 285 280 310 289 228 228 267 258 254 220 217 203 195 169 208 235 199 201 197 194 196 192 183 189
240 243 252 260 265 274 282 286 294 316 282 274 266 252 251 260 265 264 268 273 264 289 225 221 267 280 248 238 221 218 206 200 158 200 249 182 198 202 200 193 194 189 186
250 248 247 253 253 256 264 271 279 288 297 278 269 263 257 250 262 268 265 267 263 272 255 255 263 247 229 223 214 213 211 203 179 176 223 191 199 203 198 197 189 185 192
249 253 246 244 246 249 252 257 262 271 282 288 275 273 270 262 269 275 270 266 260 262 253 253 246 217 221 225 211 212 209 203 189 195 203 196 203 212 215 198 192 183 193
244 248 254 248 248 246 248 251 253 258 268 276 278 273 273 267 270 270 276 268 255 256 248 245 244 231 228 228 218 204 216 217 198 212 185 203 215 215 201 189 185 185 181
238 251 253 253 253 249 249 252 251 253 259 266 274 280 275 274 275 277 276 267 257 259 252 245 246 239 226 225 221 208 211 203 214 221 202 213 216 203 190 193 183 183 188
246 248 248 250 254 256 257 258 253 254 250 264 268 273 281 282 281 280 274 269 257 259 249 243 244 237 199 224 215 214 209 203 221 228 211 211 207 197 189 193 195 183 204
244 246 248 250 250 251 257 259 256 257 259 256 263 268 275 284 288 286 273 268 259 262 252 233 224 223 219 230 216 215 212 215 214 225 214 210 208 198 190 190 200 189 195
240 246 248 252 248 252 253 258 256 260 259 262 262 264 270 280 287 289 285 267 264 264 242 255 215 230 225 227 214 217 215 217 216 221 214 217 216 206 199 193 205 189 198
237 238 244 248 253 253 257 256 258 258 262 258 258 259 264 276 283 286 283 264 239 247 249 252 222 223 200 218 208 210 220 219 222 223 223 219 213 206 199 198 211 208 212
243 245 248 250 256 258 257 260 258 257 259 256 255 256 260 270 280 285 283 262 243 242 249 246 235 224 222 212 204 210 219 219 221 222 219 219 213 204 203 213 217 222 223
247 255 258 257 258 259 261 257 261 257 255 249 249 254 260 265 278 284 282 267 247 241 235 241 227 226 204 210 203 212 217 222 222 219 220 220 215 203 205 210 218 222 228
259 263 266 264 261 259 260 261 257 254 252 245 245 249 257 262 276 283 279 265 248 247 247 254 236 222 207 211 205 208 218 219 221 221 222 223 219 208 204 208 218 224 227
270 270 270 268 263 254 257 257 251 245 246 243 238 244 251 266 278 280 275 264 254 254 249 246 238 226 212 205 210 209 208 208 217 223 221 224 222 212 206 207 217 222 220
262 267 267 269 265 256 254 250 243 241 239 233 237 241 253 263 275 283 271 260 255 254 253 247 243 234 212 206 214 213 210 211 213 217 221 222 223 217 214 211 214 214 201
260 266 269 266 261 253 250 243 242 243 237 234 240 242 248 264 276 281 275 260 257 257 260 250 250 226 214 211 209 216 219 226 219 216 218 218 221 219 220 218 216 215 216
265 262 271 268 259 251 247 244 246 240 228 226 232 236 249 265 277 280 272 265 265 273 258 261 227 230 217 211 207 213 214 220 224 226 228 223 220 218 219 217 221 228 234
277 261 265 267 260 251 247 241 240 229 221 227 234 238 248 265 276 280 271 264 267 275 260 247 236 224 210 207 209 218 219 215 222 221 223 224 227 226 225 225 219 231 247